Flag Weather past 2 weeks in Gibraltar, Gibraltar

Now
63 °F

Passing clouds.


Feels Like: 63 °F
Forecast: 62 / 66 °F
Wind: 15 mph from East

Location: Gibraltar Airport

Current Time: Nov 21, 2014 at 3:25:36 AM

Latest Report: Nov 21, 2014 at 1:50 AM


Visibility: 4 mi

Pressure: 29.92 "Hg

Humidity: 88%

Dew point: 59 °F

Location of GibraltarLocation

Historic Weather in Gibraltar — Graph

°F

Gibraltar temperature yesterday

Maximum temperature yesterday: 64 °F (at 11:50 AM)
Minimum temperature yesterday: 59 °F (at 1:50 AM)
Average temperature yesterday: 63 °F

Past Weeks' High & Low Weather Summary

 TemperatureHumidityPressure
High68 °F (Nov 7, 3:50 PM)100% (Nov 7, 2:50 AM)30.15 "Hg (Nov 7, 2:50 AM)
Low52 °F (Nov 10, 7:50 AM)40% (Nov 16, 1:50 PM)29.77 "Hg (Nov 11, 6:50 AM)
Average62 °F77%29.97 "Hg
* Reported Nov 6 1:50 AM — Nov 21 1:50 AM, Gibraltar, Weather by CustomWeather, © 2014

Note: Actual official high and low records may vary slightly from our data, if they occured in-between our weather recording intervals... More about our weather records

Advertising

Gibraltar weather history for previous 24 hours

 ConditionsComfort  
Time TempWeatherWind HumidityBarometerVisibility
1:50 AM
Nov 21
63 °FPassing clouds.15 mph88%29.92 "Hg4 mi
12:50 AM63 °FPassing clouds.14 mph88%29.95 "Hg4 mi
11:50 PM
Nov 20
63 °FPassing clouds.15 mph88%29.95 "Hg4 mi
10:50 PM63 °FPassing clouds.16 mph88%29.95 "Hg5 mi
9:50 PM64 °FPartly cloudy.12 mph83%29.98 "Hg5 mi
8:50 PM64 °FPassing clouds.16 mph88%29.95 "Hg6 mi
7:50 PM64 °FPassing clouds.18 mph88%29.92 "Hg6 mi
6:50 PM64 °FPassing clouds.20 mph88%29.92 "Hg6 mi
5:50 PM64 °FPartly sunny.21 mph83%29.92 "Hg6 mi
4:50 PM64 °FBroken clouds.21 mph83%29.92 "Hg6 mi
3:50 PM64 °FBroken clouds.23 mph83%29.89 "Hg6 mi
2:50 PM64 °FBroken clouds.23 mph83%29.92 "Hg6 mi
1:50 PM64 °FBroken clouds.25 mph83%29.92 "Hg6 mi
12:50 PM64 °FBroken clouds.25 mph83%29.95 "Hg6 mi
11:50 AM64 °FBroken clouds.26 mph83%29.98 "Hg6 mi
10:50 AM63 °FBroken clouds.20 mph83%29.98 "HgN/A
9:50 AM63 °FPartly sunny.20 mph83%29.98 "HgN/A
8:50 AM63 °FBroken clouds.16 mph83%29.95 "HgN/A
7:50 AM63 °FPassing clouds.17 mph83%29.95 "HgN/A
6:50 AM61 °FPassing clouds.15 mph88%29.95 "HgN/A
5:50 AM61 °FPassing clouds.16 mph88%29.95 "HgN/A
4:50 AM61 °FPartly cloudy.17 mph88%29.95 "HgN/A
3:50 AM61 °FPartly cloudy.17 mph88%29.98 "HgN/A
Weather by CustomWeather, © 2014

See weather overviewHow to use our weather pages